Location: Days
(41.3591°N, 106.7339°W)
Time: 06:53:26
(UTC+00:00)

AIST 2D - Pass Details

Date: 01 July 2022
Orbit: 433 x 443 km, 97.0° (Epoch: 14 August)

Event Time Altitude Azimuth Distance (km) Brightness Sun altitude
Rises 05:06:48 0° 3° (N) 2,423 ? -19.4°
Reaches altitude 10° 05:08:54 10° 355° (N) 1,551 ? -19.6°
Maximum altitude 05:12:01 38° 286° (WNW) 686 ? -19.9°
Enters shadow 05:13:23 25° 237° (WSW) 920 ? -20.0°
